Regional Weather Roundup
Issued by NWS

Home | Current Version | Previous Version | Text Only | Print | Product List | Glossary On
Versions: 1 2 3 4 5 6 7 8 9 10 11 12 13 14 15 16 17 18 19 20 21 22 23 24 25 26 27 28 29 30 31 32 33 34 35 36 37 38 39 40 41 42 43 44 45 46 47 48 49 50
000
ASUS44 KEWX 271203
RWRTX
SOUTH TEXAS REGIONAL WEATHER ROUNDUP
NATIONAL WEATHER SERVICE AUSTIN/SAN ANTONIO TX
600 AM CST MON FEB 27 2017

NOTE: "FAIR" INDICATED FEW OR NO CLOUDS BELOW 12,000 FEET WITH NO
SIGNIFICANT WEATHER AND/OR OBSTRUCTIONS TO VISIBILITY.

* - THESE STATIONS ARE NOT NWS OR FAA STATIONS...AND ARE NOT SUBJECT
    TO NWS AND FAA QUALITY CONTROL.

TXZ171-172-183>190-271300-
TEXAS HILL COUNTRY AND EDWARDS PLATEAU

CITY           SKY/WX    TMP DP  RH WIND       PRES   REMARKS
JUNCTION       CLOUDY    56  54  93 CALM      29.90F
6HR MIN TEMP:  50; 6HR MAX TEMP:  56;

*LLANO         MOCLDY    64  64 100 CALM      29.95R FOG
BURNET         CLOUDY    64  62  93 S3        29.95S FOG
6HR MIN TEMP:  64; 6HR MAX TEMP:  65; 6HR PCP:  0.02;

*HORSESHOE BAY   N/A     65  63  93 CALM      29.93S FOG
6HR MIN TEMP:  65; 6HR MAX TEMP:  67;

*KERRVILLE     CLOUDY    64  62  94 SE6       29.93R
6HR MIN TEMP:  58; 6HR MAX TEMP:  64;

*FREDERICKSBRG CLOUDY    64  61  91 SE3       29.93S
*ROCKSPRINGS   FOG       63  61  94 S9        29.93S VSB 1
*BOERNE STAGE  CLOUDY    63  61  94 S5        29.95R
*CASTROVILLE   CLOUDY    66  65  99 SE5       29.93R FOG
HONDO          CLOUDY    65  63  93 E7        29.91R FOG
6HR MIN TEMP:  62; 6HR MAX TEMP:  68;

*UVALDE        CLOUDY    62  62  98 E7        29.91R FOG
6HR MIN TEMP:  59; 6HR MAX TEMP:  62;

DEL RIO        CLOUDY    60  58  92 SW5       29.88R
6HR MIN TEMP:  54; 6HR MAX TEMP:  60;

LAUGHLIN AFB   CLOUDY    56  55  99 W7        29.87R
6HR MIN TEMP:  54; 6HR MAX TEMP:  57;

CARRIZO SPRGS  CLOUDY    63  63 100 CALM      29.87R
*EAGLE PASS    CLOUDY    63  61  94 CALM      29.88R
$$

TXZ173-191>194-202-209-217>225-228-271300-
CENTRAL AND SOUTH CENTRAL TEXAS

CITY           SKY/WX    TMP DP  RH WIND       PRES   REMARKS
GEORGETOWN     PTCLDY    64  63  94 CALM      29.94R
6HR MIN TEMP:  64; 6HR MAX TEMP:  66;

AUSTIN/BERGSTM CLOUDY    67  65  93 SE3       29.94R FOG
6HR MIN TEMP:  67; 6HR MAX TEMP:  69;

AUSTIN/MABRY   CLOUDY    67  65  93 SE5       29.95R FOG
6HR MIN TEMP:  66; 6HR MAX TEMP:  68; 6HR PCP: TRACE;

*AUSTIN/EXEC   CLOUDY    66  66 100 S6        29.95R
*LAGO VISTA    CLOUDY    66  64  95 SE5       29.95R FOG
6HR MIN TEMP:  66; 6HR MAX TEMP:  67;

SAN MARCOS     CLOUDY    64  63  94 SE6       29.95R
6HR MIN TEMP:  64; 6HR MAX TEMP:  66;

NEW BRAUNFELS  CLOUDY    67  64  90 CALM      29.92R FOG
6HR MIN TEMP:  67; 6HR MAX TEMP:  69;

RANDOLPH AFB   CLOUDY    67  67 100 SE3       29.93R
6HR MIN TEMP:  67; 6HR MAX TEMP:  68;

PT SAN ANTONIO CLOUDY    67  64  89 SE6       29.90R
6HR MIN TEMP:  67; 6HR MAX TEMP:  68;

SAN ANTONIO    CLOUDY    67  63  87 SE8       29.93R
6HR MIN TEMP:  67; 6HR MAX TEMP:  68;

STINSON FIELD  CLOUDY    69  64  84 SE6       29.90S
6HR MIN TEMP:  68; 6HR MAX TEMP:  70;

*PLEASANTON    CLOUDY    67  65  94 SE3       29.91S
6HR MIN TEMP:  65; 6HR MAX TEMP:  67;

*LA GRANGE     CLOUDY    66  65  98 CALM      29.93S FOG
6HR MIN TEMP:  66; 6HR MAX TEMP:  70;

*GIDDINGS      CLOUDY   N/A N/A N/A CALM      29.96R FOG
*GONZALES      CLOUDY    68  68  99 SE3       29.93R
6HR MIN TEMP:  68; 6HR MAX TEMP:  70;

$$

TXZ163>164-176>182-195>201-210>213-226-227-235-271300-
SOUTHEAST TEXAS

CITY           SKY/WX    TMP DP  RH WIND       PRES   REMARKS
COLLEGE STN    CLOUDY    67  66  97 SE8       29.96R
6HR MIN TEMP:  66; 6HR MAX TEMP:  68;

*BRYAN         CLOUDY    66  66 100 S5        29.97R
6HR MIN TEMP:  65; 6HR MAX TEMP:  67;

*CALDWELL      NOT AVBL
*CROCKETT      CLOUDY    64  64 100 SE5       30.00R FOG
*BRENHAM       CLOUDY    68  67  98 SE5       29.97R FOG
6HR MIN TEMP:  67; 6HR MAX TEMP:  68;

HUNTSVILLE     MOCLDY    68  64  87 S7        29.97R
6HR MIN TEMP:  66; 6HR MAX TEMP:  68;

CONROE         CLOUDY    66  65  96 CALM      29.98R FOG
6HR MIN TEMP:  66; 6HR MAX TEMP:  66; 6HR PCP: TRACE;

HOUSTON BUSH   CLOUDY    69  66  90 CALM      29.97R
6HR MIN TEMP:  68; 6HR MAX TEMP:  70;

HOUSTON HOBBY  CLOUDY    69  67  93 CALM      29.97R
6HR MIN TEMP:  68; 6HR MAX TEMP:  70;

*HOUSTON SW AP CLOUDY    67  66  97 CALM      29.97R FOG
6HR MIN TEMP:  67; 6HR MAX TEMP:  68;

PEARLAND       LGT RAIN  71  67  87 CALM      29.98R
6HR MIN TEMP:  71; 6HR MAX TEMP:  72; 6HR PCP: TRACE;

HOUSTON HOOKS  FOG       64  63  96 CALM      29.97R VSB 3/4
6HR MIN TEMP:  64; 6HR MAX TEMP:  69; 6HR PCP: TRACE;

ELLINGTON FLD  NOT AVBL
SUGAR LAND     CLOUDY    67  67 100 CALM      29.96R
6HR MIN TEMP:  65; 6HR MAX TEMP:  68;

*HOUSTON EXEC  CLOUDY    68  66  94 CALM      29.98R FOG
*CLEVELAND MUN CLOUDY    66  65  95 CALM      29.99R FOG
6HR MIN TEMP:  66; 6HR MAX TEMP:  67;

*WHARTON       MOCLDY    68  66  94 SE8       29.96R
6HR MIN TEMP:  68; 6HR MAX TEMP:  69;

*COLUMBUS      CLOUDY    68  66  94 CALM      29.97R FOG
6HR MIN TEMP:  67; 6HR MAX TEMP:  68;

*EAGLE LAKE    CLOUDY    69  68  99 CALM      29.96R FOG
6HR MIN TEMP:  69; 6HR MAX TEMP:  71;

$$

TXZ214>216-236>238-271300-
THE UPPER TEXAS COAST

CITY           SKY/WX    TMP DP  RH WIND       PRES   REMARKS
*ORANGE        CLOUDY    68  67  98 CALM      30.01R FOG
6HR MIN TEMP:  66; 6HR MAX TEMP:  69;

PORT ARTHUR    CLOUDY    68  66  93 S6        29.98R
6HR MIN TEMP:  67; 6HR MAX TEMP:  69;

GALVESTON      CLOUDY    69  68  96 SE6       29.98R
6HR MIN TEMP:  69; 6HR MAX TEMP:  69;

ANGLETON       CLOUDY    71  69  93 S9        29.96R
6HR MIN TEMP:  71; 6HR MAX TEMP:  72;

*BAY CITY      CLOUDY    70  70 100 SE3       29.96R FOG
PALACIOS       CLOUDY    67  66  97 SE5       29.94R FOG
6HR MIN TEMP:  67; 6HR MAX TEMP:  68;

$$

TXZ229>234-239>247-271300-
TEXAS COASTAL BEND AND RIO GRANDE PLAINS

CITY           SKY/WX    TMP DP  RH WIND       PRES   REMARKS
VICTORIA       FOG       66  65  96 E5        29.94R VSB 1
6HR MIN TEMP:  65; 6HR MAX TEMP:  67;

*BEEVILLE      CLOUDY    70  70 100 SE6       29.90S
6HR MIN TEMP:  68; 6HR MAX TEMP:  70;

ROCKPORT       MOCLDY    69  67  93 S5        29.91R
6HR MIN TEMP:  69; 6HR MAX TEMP:  70;

*PORT ARANSAS  CLOUDY    67  66  97 CALM      29.91R FOG
6HR MIN TEMP:  67; 6HR MAX TEMP:  68;

*PORT LAVACA   FOG       64  64 100 CALM      29.94R VSB 1/2
6HR MIN TEMP:  64; 6HR MAX TEMP:  67;

*INGLESIDE     MOCLDY    71  68  92 S5        29.90R
CORPUS CHRISTI MOCLDY    66  66 100 SE6       29.90R
6HR MIN TEMP:  66; 6HR MAX TEMP:  69;

CORPUS NAS     PTCLDY    68  68 100 S6        29.90R
6HR MIN TEMP:  68; 6HR MAX TEMP:  69;

*ROBSTOWN      MOCLDY    68  68 100 CALM      29.89S
ALICE          CLOUDY    69  67  93 S10       29.88S
6HR MIN TEMP:  67; 6HR MAX TEMP:  70;

KINGSVILLE NAS PTCLDY    67  67 100 S6        29.89R
6HR MIN TEMP:  66; 6HR MAX TEMP:  70;

COTULLA        CLOUDY    68  64  87 SE12      29.87S
6HR MIN TEMP:  65; 6HR MAX TEMP:  71;

*FAITH RANCH   CLOUDY    63  59  88 CALM      29.86S
LAREDO         PTCLDY    67  65  93 SE10      29.87R
6HR MIN TEMP:  67; 6HR MAX TEMP:  71;

$$

TXZ248>255-271300-
DEEP SOUTH TEXAS

CITY           SKY/WX    TMP DP  RH WIND       PRES   REMARKS
BROWNSVILLE    PTCLDY    68  67  96 SE6       29.88R
6HR MIN TEMP:  68; 6HR MAX TEMP:  71;

PORT ISABEL    PTCLDY    69  68  96 S6        29.88R FOG
6HR MIN TEMP:  69; 6HR MAX TEMP:  71;

*SOUTH PA



USA.gov is the U.S. government's official web portal to all federal, state and local government web resources and services.